User: anonymous   Login
Location: Unspecified
(0.0000°N, 0.0000°E)
Time: 09:34:25
(UTC+01:00)
Language:

ARIANE 5 R/B - Orbit

View from above orbital plane
View from above orbital plane
View from above satellite
View from above satellite

Ground track
Ground track

The orbit data is extracted from the following two-line orbital elements,

1 28787U 05028B   14330.63313954 -.00000081  00000-0  52812-3 0  5797
2 28787 007.3060 033.9770 7175680 217.6507 047.4456 02.26552408 76941
Epoch (UTC): 26 November 2014 15:11:43
Eccentricity: 0.7175680
inclination: 7.3060°
perigee height: 538 km
apogee height: 35681 km
right ascension of ascending node: 33.9770°
argument of perigee: 217.6507°
revolutions per day: 2.26552408
mean anomaly at epoch: 47.4456°
orbit number at epoch: 7694

The dashed part of the orbit path shows where the satellite is in the earth's shadow,  

DLR